contact: severine.martini@mio.osupytheas.fr, dominique.lefevre@mio.osupytheas.fr
Project:EMSO Ligure-ouest http://www.emso-fr.org/EMSO-France
Sensor Microcat Sea-Bird SBE37 SMP,  Serial 57510 
DOI : "https://doi.org/10.17882/97948" 
Title:EMSO Ligure Ouest : Data Bathybot capteur Microcat - deploiement 2023-04-28
Datetime,Profondeur,Latitude,Longitude,Temperature,Conductivite,Pression,Salinite
time,m,degree_north,degree_east,degree_C,S/m,db,PSU 
2023-11-28T00:00:49,2420,42.8014,5.9826,13.2976,4.44921,2453.604,37.0763
2023-11-28T00:03:49,2420,42.8014,5.9826,13.2976,4.44981,2453.559,37.0820
2023-11-28T00:06:49,2420,42.8014,5.9826,13.2974,4.44972,2453.559,37.0813
2023-11-28T00:09:49,2420,42.8014,5.9826,13.2974,4.44957,2453.582,37.0799
2023-11-28T00:12:49,2420,42.8014,5.9826,13.2973,4.44946,2453.604,37.0790
2023-11-28T00:15:49,2420,42.8014,5.9826,13.2977,4.44947,2453.559,37.0787
2023-11-28T00:18:49,2420,42.8014,5.9826,13.2977,4.44828,2453.604,37.0676
2023-11-28T00:21:49,2420,42.8014,5.9826,13.2974,4.44900,2453.582,37.0745
2023-11-28T00:24:49,2420,42.8014,5.9826,13.2977,4.44885,2453.582,37.0729
2023-11-28T00:27:49,2420,42.8014,5.9826,13.2979,4.44908,2453.574,37.0749
2023-11-28T00:30:49,2420,42.8014,5.9826,13.2974,4.44956,2453.559,37.0798
2023-11-28T00:33:49,2420,42.8014,5.9826,13.2976,4.44937,2453.559,37.0778
2023-11-28T00:36:49,2420,42.8014,5.9826,13.2975,4.44950,2453.596,37.0791
2023-11-28T00:39:49,2420,42.8014,5.9826,13.2975,4.44902,2453.559,37.0746
2023-11-28T00:42:49,2420,42.8014,5.9826,13.2975,4.44930,2453.559,37.0774
2023-11-28T00:45:49,2420,42.8014,5.9826,13.2977,4.44926,2453.559,37.0767
2023-11-28T00:48:49,2420,42.8014,5.9826,13.2975,4.44917,2453.559,37.0761
2023-11-28T00:51:49,2420,42.8014,5.9826,13.2973,4.44918,2453.537,37.0764
2023-11-28T00:54:49,2420,42.8014,5.9826,13.2978,4.44953,2453.559,37.0793
2023-11-28T00:57:49,2420,42.8014,5.9826,13.2973,4.44952,2453.596,37.0796
2023-11-28T01:00:49,2420,42.8014,5.9826,13.2971,4.44973,2453.559,37.0817
2023-11-28T01:03:49,2420,42.8014,5.9826,13.2974,4.44940,2453.551,37.0783
2023-11-28T01:06:49,2420,42.8014,5.9826,13.2977,4.45002,2453.537,37.0839
2023-11-28T01:09:49,2420,42.8014,5.9826,13.2974,4.45002,2453.559,37.0841
2023-11-28T01:12:49,2420,42.8014,5.9826,13.2971,4.44988,2453.537,37.0831
2023-11-28T01:15:49,2420,42.8014,5.9826,13.2975,4.44990,2453.537,37.0829
2023-11-28T01:18:49,2420,42.8014,5.9826,13.2973,4.44993,2453.537,37.0834
2023-11-28T01:21:50,2420,42.8014,5.9826,13.2975,4.45002,2453.537,37.0841
2023-11-28T01:24:49,2420,42.8014,5.9826,13.2974,4.44986,2453.544,37.0826
2023-11-28T01:27:49,2420,42.8014,5.9826,13.2972,4.45012,2453.582,37.0853
2023-11-28T01:30:49,2420,42.8014,5.9826,13.2977,4.45030,2453.559,37.0865
2023-11-28T01:33:49,2420,42.8014,5.9826,13.2975,4.45026,2453.559,37.0863
2023-11-28T01:36:49,2420,42.8014,5.9826,13.2980,4.45053,2453.522,37.0883
2023-11-28T01:39:49,2420,42.8014,5.9826,13.2987,4.45336,2453.559,37.1142
2023-11-28T01:42:49,2420,42.8014,5.9826,13.2978,4.45298,2453.537,37.1116
2023-11-28T01:45:49,2420,42.8014,5.9826,13.2987,4.45152,2453.537,37.0970
2023-11-28T01:48:49,2420,42.8014,5.9826,13.2976,4.45354,2453.537,37.1170
2023-11-28T01:51:49,2420,42.8014,5.9826,13.2980,4.45371,2453.514,37.1182
2023-11-28T01:54:49,2420,42.8014,5.9826,13.2982,4.45204,2453.537,37.1024
2023-11-28T01:57:49,2420,42.8014,5.9826,13.2977,4.45203,2453.537,37.1028
2023-11-28T02:00:49,2420,42.8014,5.9826,13.2979,4.45282,2453.559,37.1099
2023-11-28T02:03:49,2420,42.8014,5.9826,13.2977,4.45497,2453.537,37.1304
2023-11-28T02:06:49,2420,42.8014,5.9826,13.2981,4.45462,2453.582,37.1267
2023-11-28T02:09:49,2420,42.8014,5.9826,13.3158,4.45391,2453.544,37.1031
2023-11-28T02:12:49,2420,42.8014,5.9826,13.3042,4.45631,2453.537,37.1367
2023-11-28T02:15:49,2420,42.8014,5.9826,13.2978,4.45340,2453.514,37.1155
2023-11-28T02:18:49,2420,42.8014,5.9826,13.2979,4.45407,2453.537,37.1217
2023-11-28T02:21:49,2420,42.8014,5.9826,13.2977,4.45380,2453.537,37.1194
2023-11-28T02:24:49,2420,42.8014,5.9826,13.2977,4.45564,2453.582,37.1367
2023-11-28T02:27:49,2420,42.8014,5.9826,13.2975,4.45510,2453.537,37.1318
2023-11-28T02:30:49,2420,42.8014,5.9826,13.2980,4.45581,2453.537,37.1380
2023-11-28T02:33:49,2420,42.8014,5.9826,13.2975,4.45441,2453.559,37.1252
2023-11-28T02:36:49,2420,42.8014,5.9826,13.2979,4.45559,2453.528,37.1360
2023-11-28T02:39:49,2420,42.8014,5.9826,13.2978,4.45519,2453.477,37.1323
2023-11-28T02:42:49,2420,42.8014,5.9826,13.2980,4.45536,2453.559,37.1337
2023-11-28T02:45:49,2420,42.8014,5.9826,13.3077,4.45517,2453.528,37.1227
2023-11-28T02:48:49,2420,42.8014,5.9826,13.2982,4.45432,2453.537,37.1238
2023-11-28T02:51:49,2420,42.8014,5.9826,13.2992,4.45402,2453.537,37.1200
2023-11-28T02:54:49,2420,42.8014,5.9826,13.2988,4.45353,2453.559,37.1158
2023-11-28T02:57:49,2420,42.8014,5.9826,13.2991,4.45345,2453.582,37.1147
2023-11-28T03:00:50,2420,42.8014,5.9826,13.2990,4.45454,2453.559,37.1251
2023-11-28T03:03:49,2420,42.8014,5.9826,13.2989,4.45438,2453.559,37.1236
2023-11-28T03:06:49,2420,42.8014,5.9826,13.2983,4.45446,2453.514,37.1250
2023-11-28T03:09:49,2420,42.8014,5.9826,13.2973,4.45460,2453.582,37.1272
2023-11-28T03:12:49,2420,42.8014,5.9826,13.2978,4.45561,2453.559,37.1363
2023-11-28T03:15:49,2420,42.8014,5.9826,13.2978,4.45659,2453.582,37.1455
2023-11-28T03:18:49,2420,42.8014,5.9826,13.2978,4.45710,2453.559,37.1502
2023-11-28T03:21:49,2420,42.8014,5.9826,13.2983,4.45670,2453.582,37.1460
2023-11-28T03:24:49,2420,42.8014,5.9826,13.2986,4.45721,2453.559,37.1505
2023-11-28T03:27:49,2420,42.8014,5.9826,13.2976,4.45662,2453.582,37.1459
2023-11-28T03:30:49,2420,42.8014,5.9826,13.2976,4.45592,2453.596,37.1394
2023-11-28T03:33:49,2420,42.8014,5.9826,13.2985,4.45708,2453.582,37.1494
2023-11-28T03:36:49,2420,42.8014,5.9826,13.2991,4.45600,2453.582,37.1387
2023-11-28T03:39:49,2420,42.8014,5.9826,13.2983,4.45667,2453.604,37.1457
2023-11-28T03:42:49,2420,42.8014,5.9826,13.2981,4.45556,2453.604,37.1355
2023-11-28T03:45:49,2420,42.8014,5.9826,13.2982,4.45516,2453.604,37.1316
2023-11-28T03:48:49,2420,42.8014,5.9826,13.2978,4.45591,2453.604,37.1391
2023-11-28T03:51:49,2420,42.8014,5.9826,13.2980,4.45554,2453.604,37.1354
2023-11-28T03:54:49,2420,42.8014,5.9826,13.2975,4.45542,2453.604,37.1348
2023-11-28T03:57:49,2420,42.8014,5.9826,13.2975,4.45609,2453.604,37.1410
2023-11-28T04:00:49,2420,42.8014,5.9826,13.2974,4.45601,2453.627,37.1404
2023-11-28T04:03:49,2420,42.8014,5.9826,13.2976,4.45586,2453.604,37.1388
2023-11-28T04:06:49,2420,42.8014,5.9826,13.2970,4.45612,2453.627,37.1418
2023-11-28T04:09:49,2420,42.8014,5.9826,13.2975,4.45656,2453.627,37.1454
2023-11-28T04:12:49,2420,42.8014,5.9826,13.2974,4.45649,2453.604,37.1449
2023-11-28T04:15:49,2420,42.8014,5.9826,13.2969,4.45631,2453.604,37.1437
2023-11-28T04:18:49,2420,42.8014,5.9826,13.2973,4.45628,2453.627,37.1430
2023-11-28T04:21:49,2420,42.8014,5.9826,13.2974,4.45603,2453.649,37.1406
2023-11-28T04:24:49,2420,42.8014,5.9826,13.2969,4.45613,2453.649,37.1420
2023-11-28T04:27:49,2420,42.8014,5.9826,13.2974,4.45574,2453.635,37.1378
2023-11-28T04:30:49,2420,42.8014,5.9826,13.2971,4.45691,2453.627,37.1491
2023-11-28T04:33:49,2420,42.8014,5.9826,13.2972,4.45742,2453.649,37.1538
2023-11-28T04:36:49,2420,42.8014,5.9826,13.2971,4.45683,2453.649,37.1484
2023-11-28T04:39:49,2420,42.8014,5.9826,13.2970,4.45699,2453.627,37.1499
2023-11-28T04:42:49,2420,42.8014,5.9826,13.2975,4.45734,2453.627,37.1528
2023-11-28T04:45:49,2420,42.8014,5.9826,13.2970,4.45727,2453.649,37.1526
2023-11-28T04:48:49,2420,42.8014,5.9826,13.2972,4.45756,2453.664,37.1551
2023-11-28T04:51:49,2420,42.8014,5.9826,13.2973,4.45751,2453.672,37.1546
2023-11-28T04:54:49,2420,42.8014,5.9826,13.2975,4.45767,2453.672,37.1558
2023-11-28T04:57:49,2420,42.8014,5.9826,13.2978,4.45769,2453.695,37.1557
2023-11-28T05:00:49,2420,42.8014,5.9826,13.2975,4.45787,2453.717,37.1577
2023-11-28T05:03:49,2420,42.8014,5.9826,13.2973,4.45793,2453.695,37.1584
2023-11-28T05:06:49,2420,42.8014,5.9826,13.2975,4.45808,2453.709,37.1597
2023-11-28T05:09:49,2420,42.8014,5.9826,13.2971,4.45816,2453.695,37.1608
2023-11-28T05:12:49,2420,42.8014,5.9826,13.2976,4.45817,2453.702,37.1604
2023-11-28T05:15:49,2420,42.8014,5.9826,13.2971,4.45786,2453.717,37.1579
2023-11-28T05:18:49,2420,42.8014,5.9826,13.2973,4.45552,2453.695,37.1359
2023-11-28T05:21:49,2420,42.8014,5.9826,13.2975,4.45563,2453.695,37.1367
2023-11-28T05:24:49,2420,42.8014,5.9826,13.2976,4.45784,2453.680,37.1573
2023-11-28T05:27:49,2420,42.8014,5.9826,13.2973,4.45612,2453.695,37.1415
2023-11-28T05:30:49,2420,42.8014,5.9826,13.2975,4.45816,2453.702,37.1604
2023-11-28T05:33:48,2420,42.8014,5.9826,13.2977,4.45718,2453.702,37.1511
2023-11-28T05:36:49,2420,42.8014,5.9826,13.2973,4.45778,2453.717,37.1570
2023-11-28T05:39:49,2420,42.8014,5.9826,13.2976,4.45758,2453.695,37.1549
2023-11-28T05:42:49,2420,42.8014,5.9826,13.2972,4.45789,2453.702,37.1582
2023-11-28T05:45:49,2420,42.8014,5.9826,13.2973,4.45821,2453.732,37.1611
2023-11-28T05:48:49,2420,42.8014,5.9826,13.2970,4.45734,2453.740,37.1531
2023-11-28T05:51:49,2420,42.8014,5.9826,13.2973,4.45733,2453.702,37.1528
2023-11-28T05:54:50,2420,42.8014,5.9826,13.2974,4.45772,2453.740,37.1564
2023-11-28T05:57:49,2420,42.8014,5.9826,13.2973,4.45768,2453.762,37.1561
2023-11-28T06:00:49,2420,42.8014,5.9826,13.2976,4.45787,2453.695,37.1576
2023-11-28T06:03:49,2420,42.8014,5.9826,13.2975,4.45748,2453.740,37.1541
2023-11-28T06:06:49,2420,42.8014,5.9826,13.2975,4.45861,2453.762,37.1646
2023-11-28T06:09:49,2420,42.8014,5.9826,13.2985,4.45859,2453.762,37.1635
2023-11-28T06:12:49,2420,42.8014,5.9826,13.2971,4.45892,2453.740,37.1679
2023-11-28T06:15:49,2420,42.8014,5.9826,13.2975,4.45833,2453.740,37.1620
2023-11-28T06:18:49,2420,42.8014,5.9826,13.2975,4.45854,2453.777,37.1640
2023-11-28T06:21:49,2420,42.8014,5.9826,13.2973,4.45840,2453.740,37.1628
2023-11-28T06:24:49,2420,42.8014,5.9826,13.2973,4.45681,2453.740,37.1479
2023-11-28T06:27:49,2420,42.8014,5.9826,13.2976,4.45693,2453.785,37.1487
2023-11-28T06:30:50,2420,42.8014,5.9826,13.2976,4.45781,2453.740,37.1570
2023-11-28T06:33:49,2420,42.8014,5.9826,13.2975,4.45718,2453.785,37.1511
2023-11-28T06:36:49,2420,42.8014,5.9826,13.2979,4.45686,2453.762,37.1477
2023-11-28T06:39:49,2420,42.8014,5.9826,13.2975,4.45748,2453.762,37.1540
2023-11-28T06:42:49,2420,42.8014,5.9826,13.2977,4.45725,2453.740,37.1517
2023-11-28T06:45:49,2420,42.8014,5.9826,13.2975,4.45764,2453.762,37.1555
2023-11-28T06:48:49,2420,42.8014,5.9826,13.2976,4.45613,2453.770,37.1413
2023-11-28T06:51:49,2420,42.8014,5.9826,13.2974,4.45627,2453.762,37.1427
2023-11-28T06:54:49,2420,42.8014,5.9826,13.2976,4.45975,2453.748,37.1753
2023-11-28T06:57:49,2420,42.8014,5.9826,13.2978,4.46035,2453.762,37.1807
2023-11-28T07:00:49,2420,42.8014,5.9826,13.2978,4.54483,2453.785,37.9752
2023-11-28T07:03:49,2420,42.8014,5.9826,13.2979,4.54508,2453.785,37.9775
2023-11-28T07:06:49,2420,42.8014,5.9826,13.2974,4.54567,2453.807,37.9835
2023-11-28T07:09:49,2420,42.8014,5.9826,13.2972,4.54554,2453.785,37.9825
2023-11-28T07:12:49,2420,42.8014,5.9826,13.2978,4.54567,2453.777,37.9831
2023-11-28T07:15:49,2420,42.8014,5.9826,13.2976,4.54353,2453.785,37.9632
2023-11-28T07:18:49,2420,42.8014,5.9826,13.2975,4.54614,2453.785,37.9879
2023-11-28T07:21:49,2420,42.8014,5.9826,13.2974,4.54454,2453.785,37.9729
2023-11-28T07:24:49,2420,42.8014,5.9826,13.2978,4.54515,2453.785,37.9782
2023-11-28T07:27:49,2420,42.8014,5.9826,13.2978,4.54418,2453.785,37.9691
2023-11-28T07:30:49,2420,42.8014,5.9826,13.2975,4.54398,2453.785,37.9674
2023-11-28T07:33:49,2420,42.8014,5.9826,13.2976,4.54326,2453.770,37.9606
2023-11-28T07:36:49,2420,42.8014,5.9826,13.2973,4.54389,2453.807,37.9668
2023-11-28T07:39:49,2420,42.8014,5.9826,13.2976,4.54421,2453.748,37.9696
2023-11-28T07:42:49,2420,42.8014,5.9826,13.2977,4.54401,2453.762,37.9677
2023-11-28T07:45:49,2420,42.8014,5.9826,13.2977,4.54378,2453.807,37.9655
2023-11-28T07:48:49,2420,42.8014,5.9826,13.2973,4.54387,2453.807,37.9666
2023-11-28T07:51:49,2420,42.8014,5.9826,13.2974,4.54412,2453.762,37.9690
2023-11-28T07:54:49,2420,42.8014,5.9826,13.2971,4.54341,2453.807,37.9625
2023-11-28T07:57:49,2420,42.8014,5.9826,13.2976,4.54388,2453.807,37.9664
2023-11-28T08:00:49,2420,42.8014,5.9826,13.2971,4.54379,2453.785,37.9661
2023-11-28T08:03:49,2420,42.8014,5.9826,13.2974,4.54368,2453.822,37.9648
2023-11-28T08:06:49,2420,42.8014,5.9826,13.2975,4.54384,2453.800,37.9662
2023-11-28T08:09:49,2420,42.8014,5.9826,13.2973,4.54391,2453.762,37.9671
2023-11-28T08:12:49,2420,42.8014,5.9826,13.2976,4.54368,2453.807,37.9646
2023-11-28T08:15:49,2420,42.8014,5.9826,13.2973,4.54372,2453.762,37.9653
2023-11-28T08:18:49,2420,42.8014,5.9826,13.2975,4.54383,2453.762,37.9661
2023-11-28T08:21:49,2420,42.8014,5.9826,13.2973,4.54375,2453.785,37.9655
2023-11-28T08:24:49,2420,42.8014,5.9826,13.2975,4.54371,2453.785,37.9650
2023-11-28T08:27:49,2420,42.8014,5.9826,13.2977,4.54406,2453.770,37.9681
2023-11-28T08:30:49,2420,42.8014,5.9826,13.2977,4.54412,2453.785,37.9686
2023-11-28T08:33:49,2420,42.8014,5.9826,13.2975,4.54422,2453.762,37.9698
2023-11-28T08:36:49,2420,42.8014,5.9826,13.2973,4.54406,2453.785,37.9685
2023-11-28T08:39:49,2420,42.8014,5.9826,13.2980,4.54446,2453.785,37.9715
2023-11-28T08:42:49,2420,42.8014,5.9826,13.2974,4.54402,2453.777,37.9680
2023-11-28T08:45:49,2420,42.8014,5.9826,13.2978,4.54405,2453.785,37.9679
2023-11-28T08:48:49,2420,42.8014,5.9826,13.2972,4.54385,2453.777,37.9666
2023-11-28T08:51:49,2420,42.8014,5.9826,13.2979,4.54367,2453.762,37.9642
2023-11-28T08:54:49,2420,42.8014,5.9826,13.2973,4.54408,2453.785,37.9686
2023-11-28T08:57:49,2420,42.8014,5.9826,13.2977,4.54529,2453.695,37.9797
2023-11-28T09:00:49,2420,42.8014,5.9826,13.2970,4.54418,2453.717,37.9699
2023-11-28T09:03:49,2420,42.8014,5.9826,13.2978,4.54423,2453.695,37.9696
2023-11-28T09:06:49,2420,42.8014,5.9826,13.2973,4.54425,2453.785,37.9702
2023-11-28T09:09:49,2420,42.8014,5.9826,13.2973,4.54419,2453.740,37.9697
2023-11-28T09:12:49,2420,42.8014,5.9826,13.2975,4.54491,2453.717,37.9763
2023-11-28T09:15:50,2420,42.8014,5.9826,13.2977,4.54565,2453.717,37.9831
2023-11-28T09:18:49,2420,42.8014,5.9826,13.2978,4.54745,2453.709,38.0000
2023-11-28T09:21:49,2420,42.8014,5.9826,13.2991,4.54785,2453.762,38.0024
2023-11-28T09:24:49,2420,42.8014,5.9826,13.3054,4.54698,2453.709,37.9881
2023-11-28T09:27:49,2420,42.8014,5.9826,13.3004,4.54567,2453.687,37.9806
2023-11-28T09:30:49,2420,42.8014,5.9826,13.3021,4.54598,2453.717,37.9819
2023-11-28T09:33:49,2420,42.8014,5.9826,13.2995,4.54498,2453.695,37.9750
2023-11-28T09:36:49,2420,42.8014,5.9826,13.2995,4.54558,2453.717,37.9806
2023-11-28T09:39:49,2420,42.8014,5.9826,13.3008,4.54483,2453.695,37.9723
2023-11-28T09:42:49,2420,42.8014,5.9826,13.3072,4.54462,2453.672,37.9640
2023-11-28T09:45:49,2420,42.8014,5.9826,13.3247,4.54530,2453.695,37.9533
2023-11-28T09:48:49,2420,42.8014,5.9826,13.3053,4.54488,2453.672,37.9684
2023-11-28T09:51:49,2420,42.8014,5.9826,13.3023,4.54436,2453.695,37.9664
2023-11-28T09:54:49,2420,42.8014,5.9826,13.2994,4.54684,2453.709,37.9926
2023-11-28T09:57:49,2420,42.8014,5.9826,13.3373,4.54555,2453.785,37.9434
2023-11-28T10:00:49,2420,42.8014,5.9826,13.3029,4.54570,2453.717,37.9785
2023-11-28T10:03:49,2420,42.8014,5.9826,13.3016,4.54494,2453.754,37.9725
2023-11-28T10:06:49,2420,42.8014,5.9826,13.2986,4.54624,2453.702,37.9877
2023-11-28T10:09:49,2420,42.8014,5.9826,13.2987,4.54893,2453.649,38.0130
2023-11-28T10:12:49,2420,42.8014,5.9826,13.2998,4.54790,2453.687,38.0022
2023-11-28T10:15:49,2420,42.8014,5.9826,13.2985,4.54572,2453.762,37.9829
2023-11-28T10:18:49,2420,42.8014,5.9826,13.3040,4.54506,2453.740,37.9713
2023-11-28T10:21:49,2420,42.8014,5.9826,13.3170,4.54468,2453.695,37.9550
2023-11-28T10:24:49,2420,42.8014,5.9826,13.3013,4.54547,2453.717,37.9778
2023-11-28T10:27:49,2420,42.8014,5.9826,13.3094,4.54592,2453.695,37.9742
2023-11-28T10:30:49,2420,42.8014,5.9826,13.3010,4.54807,2453.709,38.0027
2023-11-28T10:33:49,2420,42.8014,5.9826,13.3094,4.54648,2453.695,37.9795
2023-11-28T10:36:49,2420,42.8014,5.9826,13.3018,4.54729,2453.717,37.9945
2023-11-28T10:39:49,2420,42.8014,5.9826,13.3128,4.54425,2453.717,37.9551
2023-11-28T10:42:49,2420,42.8014,5.9826,13.3342,4.54420,2453.672,37.9337
2023-11-28T10:45:49,2420,42.8014,5.9826,13.3357,4.54403,2453.709,37.9307
2023-11-28T10:48:49,2420,42.8014,5.9826,13.3136,4.54405,2453.672,37.9525
2023-11-28T10:51:49,2420,42.8014,5.9826,13.3058,4.54700,2453.687,37.9879
2023-11-28T10:54:50,2420,42.8014,5.9826,13.2986,4.54581,2453.717,37.9836
2023-11-28T10:57:49,2420,42.8014,5.9826,13.2979,4.54690,2453.672,37.9946
2023-11-28T11:00:49,2420,42.8014,5.9826,13.2980,4.54499,2453.672,37.9766
2023-11-28T11:03:49,2420,42.8014,5.9826,13.3593,4.54421,2453.687,37.9093
2023-11-28T11:06:49,2420,42.8014,5.9826,13.3472,4.54234,2453.649,37.9035
2023-11-28T11:09:49,2420,42.8014,5.9826,13.3965,4.54262,2453.709,37.8581
2023-11-28T11:12:49,2420,42.8014,5.9826,13.3387,4.54216,2453.672,37.9102
2023-11-28T11:15:49,2420,42.8014,5.9826,13.3102,4.54165,2453.695,37.9331
2023-11-28T11:18:49,2420,42.8014,5.9826,13.3145,4.54306,2453.649,37.9422
2023-11-28T11:21:49,2420,42.8014,5.9826,13.3599,4.54161,2453.687,37.8842
2023-11-28T11:24:49,2420,42.8014,5.9826,13.3136,4.54099,2453.649,37.9237
2023-11-28T11:27:49,2420,42.8014,5.9826,13.3200,4.54132,2453.641,37.9205
2023-11-28T11:30:49,2420,42.8014,5.9826,13.3080,4.54124,2453.664,37.9315
2023-11-28T11:33:49,2420,42.8014,5.9826,13.3145,4.54173,2453.687,37.9298
2023-11-28T11:36:49,2420,42.8014,5.9826,13.3048,4.54126,2453.627,37.9348
2023-11-28T11:39:49,2420,42.8014,5.9826,13.2984,4.54229,2453.664,37.9508
2023-11-28T11:42:49,2420,42.8014,5.9826,13.2996,4.54214,2453.649,37.9482
2023-11-28T11:45:49,2420,42.8014,5.9826,13.2984,4.54053,2453.641,37.9341
2023-11-28T11:48:50,2420,42.8014,5.9826,13.2981,4.54093,2453.695,37.9382
2023-11-28T11:51:49,2420,42.8014,5.9826,13.2979,4.54018,2453.649,37.9313
2023-11-28T11:54:49,2420,42.8014,5.9826,13.2977,4.53917,2453.649,37.9220
2023-11-28T11:57:49,2420,42.8014,5.9826,13.2979,4.53888,2453.672,37.9191
2023-11-28T12:00:49,2420,42.8014,5.9826,13.2976,4.53918,2453.627,37.9222
2023-11-28T12:03:49,2420,42.8014,5.9826,13.2982,4.53907,2453.627,37.9207
2023-11-28T12:06:49,2420,42.8014,5.9826,13.2986,4.53978,2453.604,37.9269
2023-11-28T12:09:49,2420,42.8014,5.9826,13.2993,4.53934,2453.627,37.9220
2023-11-28T12:12:49,2420,42.8014,5.9826,13.2993,4.53923,2453.604,37.9210
2023-11-28T12:15:49,2420,42.8014,5.9826,13.2985,4.53963,2453.627,37.9256
2023-11-28T12:18:49,2420,42.8014,5.9826,13.2986,4.53935,2453.627,37.9229
2023-11-28T12:21:49,2420,42.8014,5.9826,13.2984,4.53982,2453.627,37.9275
2023-11-28T12:24:49,2420,42.8014,5.9826,13.2984,4.53975,2453.664,37.9268
2023-11-28T12:27:49,2420,42.8014,5.9826,13.2983,4.53969,2453.641,37.9263
2023-11-28T12:30:49,2420,42.8014,5.9826,13.3004,4.54009,2453.627,37.9281
2023-11-28T12:33:49,2420,42.8014,5.9826,13.3016,4.53962,2453.604,37.9225
2023-11-28T12:36:49,2420,42.8014,5.9826,13.3033,4.53936,2453.619,37.9183
2023-11-28T12:39:49,2420,42.8014,5.9826,13.3007,4.53923,2453.619,37.9197
2023-11-28T12:42:49,2420,42.8014,5.9826,13.3002,4.53912,2453.612,37.9191
2023-11-28T12:45:49,2420,42.8014,5.9826,13.2988,4.53961,2453.590,37.9251
2023-11-28T12:48:49,2420,42.8014,5.9826,13.2982,4.53977,2453.604,37.9273
2023-11-28T12:51:49,2420,42.8014,5.9826,13.2995,4.53998,2453.559,37.9279
2023-11-28T12:54:49,2420,42.8014,5.9826,13.2985,4.53987,2453.582,37.9279
2023-11-28T12:57:49,2420,42.8014,5.9826,13.2991,4.53995,2453.627,37.9280
2023-11-28T13:00:49,2420,42.8014,5.9826,13.3000,4.54053,2453.582,37.9326
2023-11-28T13:03:49,2420,42.8014,5.9826,13.2984,4.54037,2453.582,37.9327
2023-11-28T13:06:49,2420,42.8014,5.9826,13.2975,4.54034,2453.582,37.9332
2023-11-28T13:09:49,2420,42.8014,5.9826,13.2982,4.53936,2453.590,37.9234
2023-11-28T13:12:49,2420,42.8014,5.9826,13.2982,4.53940,2453.604,37.9238
2023-11-28T13:15:49,2420,42.8014,5.9826,13.2973,4.54029,2453.582,37.9330
2023-11-28T13:18:49,2420,42.8014,5.9826,13.2977,4.54008,2453.582,37.9307
2023-11-28T13:21:49,2420,42.8014,5.9826,13.2975,4.54003,2453.582,37.9303
2023-11-28T13:24:49,2420,42.8014,5.9826,13.2973,4.54015,2453.582,37.9316
2023-11-28T13:27:49,2420,42.8014,5.9826,13.2972,4.54028,2453.604,37.9331
2023-11-28T13:30:49,2420,42.8014,5.9826,13.2971,4.54034,2453.559,37.9336
2023-11-28T13:33:49,2420,42.8014,5.9826,13.2978,4.54005,2453.559,37.9303
2023-11-28T13:36:49,2420,42.8014,5.9826,13.2973,4.53995,2453.604,37.9297
2023-11-28T13:39:49,2420,42.8014,5.9826,13.2985,4.53984,2453.582,37.9277
2023-11-28T13:42:49,2420,42.8014,5.9826,13.2975,4.54017,2453.590,37.9317
2023-11-28T13:45:49,2420,42.8014,5.9826,13.2978,4.54045,2453.559,37.9341
2023-11-28T13:48:49,2420,42.8014,5.9826,13.2981,4.54048,2453.582,37.9341
2023-11-28T13:51:49,2420,42.8014,5.9826,13.2976,4.54076,2453.551,37.9371
2023-11-28T13:54:50,2420,42.8014,5.9826,13.2979,4.54060,2453.582,37.9354
2023-11-28T13:57:49,2420,42.8014,5.9826,13.2974,4.54052,2453.537,37.9351
2023-11-28T14:00:49,2420,42.8014,5.9826,13.2973,4.54235,2453.544,37.9524
2023-11-28T14:03:49,2420,42.8014,5.9826,13.2974,4.54042,2453.596,37.9342
2023-11-28T14:06:49,2420,42.8014,5.9826,13.2984,4.54028,2453.574,37.9318
2023-11-28T14:09:49,2420,42.8014,5.9826,13.2975,4.53977,2453.582,37.9279
2023-11-28T14:12:49,2420,42.8014,5.9826,13.2971,4.53950,2453.582,37.9258
2023-11-28T14:15:49,2420,42.8014,5.9826,13.2973,4.53978,2453.574,37.9281
2023-11-28T14:18:49,2420,42.8014,5.9826,13.2973,4.53923,2453.559,37.9230
2023-11-28T14:21:49,2420,42.8014,5.9826,13.2979,4.54028,2453.551,37.9323
2023-11-28T14:24:49,2420,42.8014,5.9826,13.2979,4.54011,2453.537,37.9307
2023-11-28T14:27:50,2420,42.8014,5.9826,13.2973,4.54058,2453.537,37.9357
2023-11-28T14:30:49,2420,42.8014,5.9826,13.2975,4.54095,2453.559,37.9390
2023-11-28T14:33:49,2420,42.8014,5.9826,13.2977,4.54159,2453.559,37.9449
2023-11-28T14:36:49,2420,42.8014,5.9826,13.2980,4.54103,2453.574,37.9393
2023-11-28T14:39:49,2420,42.8014,5.9826,13.2973,4.54091,2453.537,37.9389
2023-11-28T14:42:49,2420,42.8014,5.9826,13.2975,4.54162,2453.559,37.9454
2023-11-28T14:45:49,2420,42.8014,5.9826,13.2975,4.54182,2453.574,37.9473
2023-11-28T14:48:49,2420,42.8014,5.9826,13.2976,4.54142,2453.559,37.9434
2023-11-28T14:51:49,2420,42.8014,5.9826,13.2985,4.54228,2453.559,37.9507
2023-11-28T14:54:49,2420,42.8014,5.9826,13.2979,4.54137,2453.537,37.9425
2023-11-28T14:57:49,2420,42.8014,5.9826,13.2989,4.54165,2453.559,37.9442
2023-11-28T15:00:49,2420,42.8014,5.9826,13.3021,4.54287,2453.582,37.9526
2023-11-28T15:03:49,2420,42.8014,5.9826,13.2977,4.54362,2453.559,37.9640
2023-11-28T15:06:49,2420,42.8014,5.9826,13.2985,4.54456,2453.559,37.9721
2023-11-28T15:09:49,2420,42.8014,5.9826,13.2975,4.54306,2453.559,37.9590
2023-11-28T15:12:49,2420,42.8014,5.9826,13.2978,4.54482,2453.574,37.9752
2023-11-28T15:15:49,2420,42.8014,5.9826,13.2978,4.54275,2453.559,37.9557
2023-11-28T15:18:49,2420,42.8014,5.9826,13.2983,4.54312,2453.537,37.9587
2023-11-28T15:21:49,2420,42.8014,5.9826,13.3011,4.54245,2453.559,37.9496
2023-11-28T15:24:49,2420,42.8014,5.9826,13.2978,4.54208,2453.582,37.9494
2023-11-28T15:27:49,2420,42.8014,5.9826,13.2979,4.54200,2453.559,37.9485
2023-11-28T15:30:49,2420,42.8014,5.9826,13.2975,4.54169,2453.582,37.9460
2023-11-28T15:33:49,2420,42.8014,5.9826,13.2976,4.54170,2453.559,37.9460
2023-11-28T15:36:49,2420,42.8014,5.9826,13.2978,4.54209,2453.604,37.9494
2023-11-28T15:39:49,2420,42.8014,5.9826,13.2975,4.54229,2453.582,37.9517
2023-11-28T15:42:49,2420,42.8014,5.9826,13.2977,4.54193,2453.559,37.9481
2023-11-28T15:45:49,2420,42.8014,5.9826,13.2973,4.54185,2453.582,37.9477
2023-11-28T15:48:49,2420,42.8014,5.9826,13.2975,4.54174,2453.582,37.9465
2023-11-28T15:51:49,2420,42.8014,5.9826,13.2977,4.54248,2453.582,37.9533
2023-11-28T15:54:49,2420,42.8014,5.9826,13.2978,4.54408,2453.537,37.9683
2023-11-28T15:57:49,2420,42.8014,5.9826,13.2975,4.54180,2453.582,37.9471
2023-11-28T16:00:49,2420,42.8014,5.9826,13.2977,4.54141,2453.582,37.9432
2023-11-28T16:03:49,2420,42.8014,5.9826,13.2972,4.54154,2453.582,37.9449